TimeEST,TemperatureF,Dew PointF,Humidity,Sea Level PressureIn,VisibilityMPH,Wind Direction,Wind SpeedMPH,Gust SpeedMPH,PrecipitationIn,Events,Conditions,WindDirDegrees,DateUTC
12:20 AM,53.6,50.0,88,29.91,8.0,SSW,13.8,24.2,N/A,,Overcast,200,2012-12-05 05:20:00
12:52 AM,54.0,50.0,86,29.93,8.0,SSW,10.4,20.7,N/A,,Overcast,200,2012-12-05 05:52:00
1:52 AM,54.0,50.0,86,29.91,9.0,SSW,12.7,19.6,N/A,,Overcast,210,2012-12-05 06:52:00
2:23 AM,53.6,50.0,88,29.86,9.0,SSW,9.2,18.4,0.00,Rain,Light Rain,210,2012-12-05 07:23:00
2:52 AM,53.1,50.0,89,29.87,6.0,South,10.4,-,0.01,Rain,Light Rain,190,2012-12-05 07:52:00
3:37 AM,53.6,50.0,88,29.83,7.0,SSW,10.4,16.1,0.01,,Overcast,210,2012-12-05 08:37:00
3:52 AM,53.1,50.0,89,29.86,6.0,SSW,11.5,-,0.01,,Overcast,200,2012-12-05 08:52:00
4:33 AM,51.8,48.2,88,29.85,10.0,West,8.1,17.3,0.04,,Overcast,280,2012-12-05 09:33:00
4:50 AM,51.8,46.4,82,29.85,10.0,Variable,4.6,-,0.04,Rain,Light Rain,0,2012-12-05 09:50:00
4:52 AM,51.1,46.9,86,29.87,9.0,Calm,Calm,-,0.04,Rain,Light Rain,0,2012-12-05 09:52:00
5:52 AM,48.9,44.1,83,29.89,10.0,Variable,4.6,-,0.02,Rain,Light Rain,0,2012-12-05 10:52:00
6:52 AM,46.9,42.1,83,29.91,10.0,Variable,3.5,-,0.01,,Overcast,0,2012-12-05 11:52:00
7:17 AM,46.4,41.0,81,29.89,10.0,Variable,3.5,-,N/A,,Overcast,0,2012-12-05 12:17:00
7:52 AM,46.0,39.0,76,29.92,10.0,West,8.1,-,N/A,,Partly Cloudy,270,2012-12-05 12:52:00
9:52 AM,46.9,34.0,61,29.95,10.0,Variable,5.8,-,N/A,,Overcast,0,2012-12-05 14:52:00
10:52 AM,46.9,33.1,59,29.94,10.0,West,10.4,16.1,N/A,,Overcast,280,2012-12-05 15:52:00
11:52 AM,46.0,30.0,54,29.94,10.0,Variable,6.9,-,N/A,,Overcast,0,2012-12-05 16:52:00
12:52 PM,46.0,28.9,51,29.93,10.0,West,11.5,19.6,N/A,,Scattered Clouds,280,2012-12-05 17:52:00
1:52 PM,44.1,27.0,51,29.94,10.0,WNW,12.7,19.6,N/A,,Partly Cloudy,300,2012-12-05 18:52:00
2:52 PM,41.0,25.0,53,29.97,10.0,West,8.1,17.3,N/A,,Overcast,280,2012-12-05 19:52:00
3:52 PM,39.0,24.1,55,30.00,10.0,WNW,5.8,17.3,N/A,,Overcast,300,2012-12-05 20:52:00
4:52 PM,36.0,21.9,57,30.03,10.0,WNW,8.1,21.9,N/A,,Overcast,300,2012-12-05 21:52:00
5:52 PM,35.1,19.0,52,30.05,10.0,NW,12.7,20.7,N/A,,Overcast,310,2012-12-05 22:52:00
6:52 PM,34.0,18.0,52,30.07,10.0,Variable,5.8,-,N/A,,Overcast,0,2012-12-05 23:52:00
7:52 PM,32.0,18.0,56,30.10,10.0,NNW,8.1,17.3,N/A,,Overcast,330,2012-12-06 00:52:00
8:52 PM,30.9,16.0,54,30.12,10.0,NW,8.1,19.6,N/A,,Overcast,320,2012-12-06 01:52:00
10:52 PM,28.9,12.0,49,30.15,10.0,NNW,10.4,21.9,N/A,,Overcast,340,2012-12-06 03:52:00